Find Starlink 30893

NORAD ID: 58724 Int'l Des: 2024-002 Owner: SPXS Country: US Constellation: starlink operational
LEOCIRCULAR

現在のビュー

3D地球を読み込み中...

About Starlink 30893

Starlink 30893 (NORAD 58724) is a starlink constellation satellite (v2 mini) launched Jan 3, 2024 by SPXS of US. It operates in LEO, CIRCULAR orbit with a mass of 730.00 kg.

Starlink 30893について

説明を読み込み中...

次回通過

Passes for default location (London). Set your location on the main map for personalized predictions.

高度履歴

Loading altitude history...

軌道要素

1 58724U 24002V 26167.17391287 -.00000129 00000-0 73240-5 0 9998
2 58724 53.1607 131.7867 0001220 85.3442 274.7700 15.34386474137096
Epoch: Jun 16, 2026 • Age: 5 hours

現在のステータス

高度 462.6 km
速度 7.64 km/s
衛星直下点 13.68°N, 102.59°E
打ち上げ日 Jan 3, 2024
運用期間 2.4 years
タイプ internet

技術仕様

分類 Payload
質量 730.00 kg
乾燥質量 700.00 kg
総質量 730.00 kg
長さ 0.30 m
直径 4.10 m
スパン 29.00 m
形状 Box + pan
製造者 SPXS
バスタイプ Starlink V2M
フェーズステータス In Orbit
所有者/国 SPXS/US

Most Searched